Temp
72 75 75 73 64 59 54 63 68 71 72 76 77 73 71 73 70 63 78 79 81 79 80 81 80 80 80 80 80 79 79 79 79 79 79 79 79 79 79 79 79 80 81 81 81 81 81 81 81
73 81 75 68 57 51 57 66 68 71 76 80 80 78 75 72 80 79 80 82 82 80 79 80 80 80 80 80 79 79 79 79 79 79 79 79 79 79 79 79 79 80 81 81 81 81 81 81 80
79 79 68 61 53 52 56 66 67 75 79 81 78 82 79 75 82 77 77 76 78 79 80 79 80 80 80 80 79 79 79 79 79 79 79 79 79 78 78 79 79 80 81 81 81 81 80 80 80
76 71 65 57 53 61 63 68 70 76 78 81 81 75 81 85 84 81 74 72 75 80 82 80 80 80 80 80 80 79 79 79 79 79 79 79 79 78 78 78 79 80 81 81 81 80 80 80 79
72 65 55 53 56 65 70 73 73 73 73 75 79 73 75 83 86 78 73 73 77 80 82 80 80 80 80 80 80 79 79 79 79 79 79 79 78 78 78 78 79 79 80 80 80 80 79 79 79
67 64 54 52 66 70 71 70 73 73 74 74 75 75 72 82 84 77 78 74 80 82 79 79 81 80 80 80 79 79 79 78 78 78 79 79 78 78 78 78 79 79 79 80 80 80 79 78 78
62 59 52 52 64 67 73 72 71 71 72 72 77 71 73 82 83 80 82 82 81 82 78 78 78 79 80 79 79 79 78 78 78 78 78 78 78 78 78 78 78 78 78 78 79 79 79 78 78
67 61 53 56 60 59 71 73 71 76 74 82 82 69 64 77 83 83 79 78 79 77 79 75 75 77 76 76 79 79 78 78 78 77 77 77 78 78 78 77 77 78 78 78 78 78 78 78 77
70 57 50 57 60 64 69 70 80 82 79 80 79 78 79 80 83 81 78 79 78 80 75 75 76 75 75 76 78 78 79 79 78 78 78 76 74 75 76 77 77 78 78 78 78 77 77 77 77
64 55 56 66 63 62 68 69 73 76 74 73 76 80 84 81 77 75 73 73 76 76 77 73 74 75 75 80 75 75 76 75 74 74 73 73 73 72 77 77 77 78 78 78 78 77 77 77 74
61 61 66 67 69 68 69 72 75 71 66 70 72 75 79 75 72 73 73 71 70 72 73 73 71 71 73 74 72 73 73 73 72 72 73 72 75 73 74 75 76 76 77 76 77 76 76 75 74
62 70 71 69 71 70 66 71 72 71 70 77 78 79 77 72 70 71 70 70 70 70 70 71 71 70 69 70 72 73 71 72 71 71 72 72 72 71 71 74 75 75 75 75 74 73 74 73 73
63 66 72 73 67 65 72 67 67 69 76 79 80 79 74 70 69 70 70 70 70 69 71 71 72 70 68 68 67 68 69 71 72 71 72 73 73 72 72 73 75 75 73 73 72 73 72 72 73
67 67 68 66 67 67 67 67 68 75 78 77 78 76 72 71 71 68 70 68 68 68 68 69 69 68 68 69 69 70 67 68 68 72 72 75 76 72 70 74 74 72 71 71 72 71 70 71 72
70 61 66 66 67 68 70 67 66 75 76 75 76 73 70 70 72 69 69 67 68 67 68 68 69 68 66 66 67 69 71 72 70 68 69 73 74 72 71 73 74 75 72 70 69 70 71 70 70
63 61 52 63 69 68 68 57 69 74 71 71 74 73 70 69 69 68 69 67 67 67 67 67 71 66 65 64 66 67 69 70 72 73 70 69 72 75 75 75 75 77 72 73 70 70 68 67 66
56 50 51 61 64 65 63 57 71 71 70 70 71 68 69 67 67 67 69 68 68 66 66 66 66 65 64 64 64 64 66 67 70 71 72 72 71 75 74 73 77 75 72 70 70 72 67 66 68
50 50 55 55 64 64 58 60 65 69 68 69 65 68 66 66 66 69 69 69 68 66 65 64 64 63 63 62 63 64 65 68 71 72 70 72 71 73 72 73 74 71 70 69 67 67 66 67 67
60 57 54 59 63 59 55 57 62 67 67 66 64 64 64 65 67 68 70 70 68 65 64 64 62 61 61 61 63 64 63 66 68 70 71 71 70 70 73 73 72 69 66 65 65 64 65 66 65
60 55 53 59 64 60 58 58 62 66 65 64 63 62 63 63 65 67 67 67 66 64 63 62 61 61 62 59 59 59 61 63 65 68 69 69 66 65 68 70 66 67 62 62 62 62 62 64 64
55 54 52 53 59 59 56 53 57 61 62 62 62 64 63 61 63 63 64 63 63 62 62 62 60 60 60 59 60 60 60 62 63 64 66 66 66 65 62 63 63 64 63 63 62 62 64 61 65
52 62 61 59 52 44 56 40 50 54 55 57 57 57 57 59 61 61 61 60 60 61 61 60 60 59 61 59 57 56 55 55 57 61 63 65 65 63 63 62 62 61 61 62 62 64 63 62 59
57 64 58 57 49 45 50 41 47 52 50 52 54 57 56 56 57 58 57 59 60 61 61 61 59 58 57 57 56 55 54 55 58 62 61 62 64 63 63 61 60 60 59 60 60 60 59 59 60
65 58 53 48 44 37 45 44 41 45 50 51 53 55 57 57 58 58 61 62 61 58 58 57 56 56 57 56 56 55 54 54 55 57 58 60 62 62 63 63 61 60 60 59 60 60 60 60 61
58 45 34 36 34 35 48 43 43 52 54 54 53 53 54 55 56 56 57 58 57 55 55 58 57 55 56 56 57 56 54 53 54 56 57 57 59 60 60 61 60 60 60 60 59 60 61 59 58
50 47 36 30 30 36 47 38 45 56 57 57 56 54 53 52 51 52 51 51 51 53 54 55 55 53 55 56 56 57 56 53 54 55 55 57 57 57 58 58 59 58 58 57 57 57 57 56 55
52 45 51 41 38 33 39 45 52 54 54 54 52 52 51 50 52 51 52 52 52 52 53 53 54 54 58 57 56 55 55 53 54 54 55 54 54 57 56 56 55 57 57 57 56 55 55 57 55
54 56 41 37 30 27 36 39 41 45 49 51 49 48 50 50 49 52 53 53 52 52 52 52 54 55 55 54 54 56 53 54 54 54 53 52 52 52 53 54 54 56 56 56 55 55 53 53 52
49 45 44 41 36 30 27 34 48 48 50 48 46 49 49 48 51 53 53 52 52 53 53 53 53 53 53 53 53 52 52 52 53 53 51 50 50 50 51 55 55 55 54 53 53 52 49 51 48
54 47 43 30 34 36 30 33 53 48 49 49 48 52 50 50 53 52 52 53 53 52 53 54 53 53 52 53 53 52 51 51 50 51 49 49 48 51 50 54 54 53 53 52 51 50 50 48 46
MSLP
1009.39 1008.97 1009.15 1009.50 1010.62 1011.06 1010.56 1009.16 1008.77 1008.20 1008.30 1008.32 1008.77 1009.19 1009.19 1009.36 1009.78 1009.79 1008.35 1009.12 1009.68 1010.09 1009.88 1010.26 1010.39 1010.54 1010.76 1010.71 1010.84 1010.78 1010.87 1010.99 1011.22 1011.11 1011.11 1011.44 1011.63 1011.91 1011.96 1012.00 1012.14 1012.12 1012.02 1011.99 1011.99 1012.10 1012.42 1012.52 1012.56
1009.18 1008.82 1009.19 1009.87 1010.95 1011.45 1010.36 1008.83 1008.20 1008.06 1007.67 1007.75 1008.15 1008.58 1008.93 1009.19 1009.17 1008.88 1008.71 1009.27 1009.78 1010.03 1009.99 1009.91 1010.04 1010.30 1010.28 1010.40 1010.71 1010.81 1010.99 1011.23 1011.32 1011.46 1011.52 1011.44 1011.84 1012.01 1012.08 1012.09 1012.20 1012.21 1012.23 1012.25 1012.15 1012.11 1012.40 1012.45 1012.46
1009.06 1009.16 1010.01 1010.78 1011.41 1011.14 1010.04 1008.52 1007.72 1007.74 1007.32 1007.03 1007.59 1007.90 1008.48 1008.86 1009.22 1010.19 1011.77 1011.79 1012.33 1011.20 1010.08 1010.28 1010.12 1009.97 1010.09 1010.19 1010.43 1010.54 1010.74 1011.14 1011.34 1011.28 1011.39 1011.37 1011.58 1011.82 1011.83 1011.96 1012.20 1012.34 1012.31 1012.32 1012.29 1012.30 1012.44 1012.44 1012.47
1009.41 1009.71 1010.77 1011.08 1011.25 1010.18 1009.06 1008.18 1007.23 1007.41 1007.52 1007.32 1007.17 1008.08 1008.48 1008.49 1009.00 1010.05 1011.44 1012.33 1011.85 1010.61 1010.38 1010.13 1010.10 1010.35 1009.97 1009.85 1010.03 1010.30 1010.59 1011.02 1011.31 1011.31 1011.37 1011.50 1011.40 1011.63 1011.68 1011.74 1011.91 1012.10 1012.08 1012.01 1012.10 1012.21 1012.41 1012.44 1012.42
1009.79 1010.64 1011.32 1011.69 1011.10 1009.62 1008.55 1007.78 1007.03 1007.33 1007.77 1007.78 1007.45 1008.48 1008.37 1008.53 1008.87 1009.78 1010.49 1010.71 1008.94 1009.34 1009.79 1010.78 1009.98 1009.73 1009.85 1009.98 1009.98 1010.37 1010.38 1010.66 1010.85 1011.05 1011.37 1011.61 1011.51 1011.69 1011.77 1011.56 1011.65 1011.85 1011.95 1012.01 1011.98 1012.02 1012.19 1012.40 1012.45
1010.58 1011.27 1011.93 1011.89 1010.69 1008.80 1008.00 1007.57 1007.13 1007.49 1008.00 1008.00 1008.00 1008.28 1008.77 1008.47 1008.77 1009.66 1009.50 1009.57 1008.23 1008.61 1009.63 1010.83 1010.53 1010.29 1010.90 1011.00 1010.55 1010.37 1010.46 1010.32 1010.49 1010.75 1010.66 1010.92 1011.41 1011.29 1011.64 1011.84 1011.68 1011.59 1011.62 1011.74 1011.86 1011.83 1011.95 1012.24 1012.29
1010.91 1011.66 1011.82 1011.51 1010.51 1008.93 1007.73 1007.27 1007.38 1007.61 1007.59 1007.87 1008.16 1008.75 1008.81 1008.38 1008.84 1009.08 1009.02 1009.43 1010.11 1009.53 1010.18 1010.41 1011.26 1011.46 1011.48 1011.38 1010.87 1010.51 1010.26 1010.43 1010.73 1011.09 1011.03 1011.06 1011.22 1011.08 1011.18 1011.40 1011.54 1011.69 1011.75 1011.65 1011.49 1011.52 1011.53 1011.66 1011.85
1010.48 1011.33 1011.65 1010.80 1009.93 1008.74 1007.81 1007.41 1007.28 1007.24 1007.59 1007.61 1007.72 1009.10 1009.29 1008.80 1008.45 1009.52 1009.60 1009.54 1010.10 1010.84 1011.34 1011.58 1011.98 1012.08 1011.95 1011.92 1011.42 1011.11 1010.57 1010.41 1010.71 1010.91 1010.98 1010.86 1010.79 1010.82 1010.93 1011.24 1011.17 1011.22 1011.23 1011.33 1011.34 1011.21 1011.27 1011.38 1011.47
1010.07 1011.06 1011.39 1010.35 1009.58 1008.85 1008.10 1007.58 1007.14 1007.44 1007.83 1008.20 1008.42 1009.04 1009.20 1009.07 1008.99 1010.22 1010.49 1010.70 1011.13 1011.70 1012.21 1012.33 1012.40 1012.24 1012.29 1011.95 1011.40 1011.23 1010.96 1010.95 1010.98 1010.76 1010.85 1010.90 1011.06 1010.72 1010.79 1010.85 1010.77 1010.83 1010.81 1010.88 1010.92 1010.86 1010.85 1011.03 1011.09
1010.01 1010.75 1010.38 1009.58 1009.14 1008.65 1008.17 1007.83 1007.63 1008.21 1008.46 1008.88 1008.83 1009.03 1009.08 1009.49 1010.17 1011.27 1011.84 1012.31 1012.40 1012.87 1012.86 1012.92 1012.77 1012.62 1012.27 1011.67 1011.54 1011.25 1010.98 1011.16 1011.39 1011.46 1011.55 1011.26 1010.99 1010.72 1010.47 1010.45 1010.47 1010.40 1010.29 1010.35 1010.44 1010.40 1010.47 1010.66 1010.77
1009.40 1009.85 1009.62 1009.17 1008.75 1008.63 1008.48 1008.16 1008.03 1008.52 1009.03 1008.91 1009.15 1009.28 1009.56 1010.29 1010.95 1011.45 1012.73 1013.10 1013.45 1013.80 1013.76 1013.63 1013.51 1013.00 1012.50 1012.17 1011.88 1011.54 1011.11 1011.23 1011.38 1011.38 1011.21 1010.94 1010.68 1010.36 1010.20 1010.05 1009.95 1010.02 1009.77 1009.79 1010.01 1010.30 1010.37 1010.31 1010.43
1008.92 1009.08 1008.97 1008.75 1008.42 1008.64 1008.68 1008.53 1008.48 1008.51 1008.80 1008.87 1008.86 1009.05 1009.65 1010.75 1011.45 1011.80 1012.44 1013.50 1013.75 1013.82 1013.81 1013.78 1013.62 1013.46 1013.03 1012.68 1012.27 1011.94 1011.49 1011.31 1011.04 1010.90 1010.67 1010.52 1010.41 1009.99 1009.79 1009.84 1009.62 1009.53 1009.33 1009.46 1009.61 1009.66 1009.89 1009.93 1010.01
1008.59 1008.81 1008.69 1008.47 1008.37 1008.54 1008.53 1008.61 1008.70 1008.58 1008.75 1008.44 1008.66 1008.95 1009.88 1010.85 1011.55 1011.91 1012.19 1012.43 1012.53 1012.84 1012.96 1012.86 1013.05 1013.24 1013.11 1013.13 1012.88 1012.49 1012.33 1011.89 1011.16 1010.68 1010.31 1010.08 1010.02 1009.59 1009.26 1009.29 1009.31 1008.92 1008.81 1008.95 1009.29 1009.39 1009.61 1009.74 1009.57
1008.67 1008.95 1008.89 1008.67 1008.64 1008.64 1008.65 1008.86 1008.78 1008.23 1008.44 1008.60 1008.65 1009.04 1010.08 1010.68 1011.28 1011.90 1012.11 1012.41 1012.27 1012.48 1012.92 1012.98 1012.82 1012.61 1012.48 1012.41 1012.32 1012.41 1012.23 1011.81 1011.36 1010.72 1010.23 1009.79 1009.39 1009.23 1009.12 1008.98 1008.77 1008.60 1008.27 1008.26 1008.59 1008.80 1009.00 1009.01 1009.03
1008.80 1009.28 1009.30 1009.18 1008.97 1008.91 1008.95 1009.22 1008.96 1008.34 1008.53 1008.71 1008.92 1009.42 1010.53 1011.11 1011.37 1011.67 1012.08 1012.46 1012.52 1012.68 1012.74 1012.81 1013.09 1013.10 1012.64 1012.39 1012.34 1012.21 1011.78 1011.44 1011.28 1010.81 1010.08 1009.50 1008.96 1008.71 1008.67 1008.46 1008.20 1007.99 1007.68 1007.97 1008.34 1008.28 1008.64 1008.77 1008.91
1009.64 1009.97 1010.28 1009.31 1009.19 1009.10 1009.39 1009.79 1009.25 1008.88 1008.74 1009.09 1009.20 1010.25 1010.90 1011.40 1011.52 1011.95 1012.16 1012.30 1012.44 1012.60 1012.88 1013.06 1013.57 1013.75 1013.67 1013.41 1012.99 1012.38 1011.75 1011.31 1010.65 1010.06 1009.65 1009.21 1008.81 1008.25 1008.03 1007.81 1007.59 1007.21 1007.37 1007.65 1007.94 1007.96 1008.25 1008.63 1008.99
1011.14 1011.17 1010.93 1010.27 1009.74 1009.94 1010.38 1010.58 1009.82 1009.37 1009.45 1009.72 1009.62 1010.68 1011.15 1011.62 1012.13 1012.34 1012.26 1012.23 1012.37 1012.49 1012.86 1013.53 1013.94 1014.04 1013.87 1013.64 1013.08 1012.59 1012.14 1011.70 1010.96 1010.14 1009.38 1008.74 1008.47 1007.75 1007.42 1007.11 1006.65 1006.57 1006.74 1007.01 1007.24 1007.42 1008.05 1008.50 1008.41
1011.81 1011.64 1011.25 1011.17 1011.19 1010.81 1011.21 1011.30 1010.81 1009.87 1009.64 1009.67 1010.13 1011.08 1011.70 1012.16 1012.62 1012.54 1012.47 1012.44 1012.48 1012.69 1013.29 1013.70 1014.07 1014.33 1014.08 1013.85 1013.30 1012.66 1012.21 1011.63 1010.85 1010.28 1009.59 1008.63 1007.89 1007.14 1006.60 1006.35 1006.09 1006.15 1006.48 1006.65 1006.93 1007.66 1008.19 1008.01 1008.13
1011.16 1011.60 1011.86 1011.62 1011.67 1011.46 1011.76 1011.59 1010.75 1010.07 1010.06 1009.74 1010.31 1011.19 1012.19 1012.69 1012.89 1012.92 1012.84 1013.03 1013.22 1013.57 1014.10 1014.42 1014.64 1014.57 1014.14 1013.94 1013.71 1013.12 1012.63 1011.60 1011.10 1010.45 1009.70 1008.90 1008.03 1007.01 1006.29 1005.81 1005.78 1006.04 1006.82 1007.22 1007.76 1008.37 1008.69 1008.15 1007.76
1011.55 1011.97 1012.51 1012.05 1011.66 1011.82 1012.06 1012.17 1012.26 1011.46 1011.30 1011.72 1011.89 1013.10 1013.51 1013.90 1014.11 1014.62 1014.40 1014.38 1014.40 1014.68 1014.86 1014.98 1015.16 1014.90 1014.34 1013.98 1013.70 1013.43 1013.00 1012.02 1011.13 1010.57 1009.84 1009.12 1008.45 1007.54 1006.39 1005.71 1005.84 1005.87 1006.76 1007.09 1007.39 1007.98 1008.31 1008.69 1007.96
1011.89 1012.36 1012.84 1013.09 1012.78 1012.88 1013.15 1013.75 1013.92 1014.01 1013.21 1013.45 1014.19 1014.77 1015.18 1015.25 1015.53 1015.62 1015.18 1015.20 1015.11 1014.94 1014.79 1014.62 1014.51 1014.21 1014.17 1013.89 1013.55 1013.29 1012.92 1011.92 1011.04 1010.53 1010.05 1009.36 1008.59 1008.04 1007.44 1006.68 1006.19 1006.30 1006.38 1007.09 1007.27 1007.77 1009.06 1009.32 1008.04
1012.00 1012.45 1012.90 1013.40 1014.12 1014.52 1014.53 1015.95 1015.93 1015.99 1015.74 1015.79 1016.28 1016.38 1016.72 1016.44 1016.15 1016.08 1015.99 1015.83 1015.62 1015.36 1015.34 1014.96 1014.79 1015.05 1014.57 1014.23 1014.28 1013.89 1013.83 1012.99 1012.05 1011.49 1010.64 1009.71 1009.19 1008.47 1008.00 1007.36 1006.80 1006.70 1006.90 1007.17 1007.54 1008.16 1008.65 1008.76 1009.09
1012.40 1012.76 1013.65 1014.02 1014.85 1015.62 1015.74 1016.43 1016.61 1016.62 1016.92 1017.32 1017.36 1017.25 1017.34 1017.17 1016.69 1016.73 1016.70 1016.60 1016.47 1016.19 1015.98 1015.53 1015.29 1015.00 1014.53 1014.24 1014.57 1014.88 1013.85 1013.34 1012.15 1011.48 1011.04 1010.22 1009.44 1009.15 1008.54 1008.11 1008.02 1007.56 1007.35 1007.43 1007.49 1007.59 1007.15 1007.48 1008.72
1012.53 1013.48 1014.46 1015.35 1016.11 1017.01 1016.80 1017.19 1017.63 1017.16 1017.09 1017.59 1017.69 1017.47 1017.46 1017.26 1017.18 1017.27 1017.02 1016.71 1016.56 1016.26 1015.99 1015.62 1015.54 1015.27 1014.73 1014.33 1014.20 1014.43 1014.30 1013.10 1012.68 1011.69 1011.29 1010.86 1009.95 1009.39 1008.89 1008.28 1008.41 1008.41 1008.37 1007.92 1007.92 1007.41 1007.40 1007.13 1008.40
1013.18 1015.09 1016.85 1017.66 1018.17 1018.23 1017.17 1017.27 1017.13 1016.79 1017.07 1017.34 1017.81 1018.01 1017.87 1017.75 1017.64 1017.46 1017.38 1017.26 1017.05 1016.75 1016.54 1016.20 1015.72 1015.44 1014.84 1014.41 1013.94 1013.90 1013.79 1013.34 1013.17 1012.11 1011.66 1011.54 1010.94 1010.19 1009.49 1008.95 1008.82 1008.67 1008.15 1007.97 1008.48 1007.79 1006.97 1008.65 1008.18
1014.12 1015.62 1017.55 1018.74 1019.49 1018.90 1017.79 1017.20 1016.62 1016.54 1017.01 1017.21 1017.61 1018.02 1018.15 1018.10 1018.08 1018.06 1018.03 1017.86 1017.55 1017.36 1016.93 1016.52 1016.01 1015.62 1015.22 1014.65 1014.06 1013.84 1013.30 1013.50 1013.60 1012.43 1011.72 1011.81 1011.46 1011.10 1010.65 1009.68 1008.93 1008.91 1008.70 1007.53 1008.50 1008.23 1007.63 1008.49 1008.36
1014.49 1015.73 1016.69 1018.38 1019.56 1019.51 1018.38 1017.59 1017.03 1016.91 1017.30 1017.74 1018.05 1018.25 1018.21 1018.23 1017.90 1018.09 1017.78 1017.74 1017.67 1017.30 1016.86 1016.68 1016.30 1015.81 1015.44 1014.79 1014.33 1013.95 1013.52 1013.72 1013.72 1012.62 1011.94 1011.88 1011.56 1011.24 1010.91 1010.47 1009.66 1008.86 1008.71 1008.35 1008.31 1008.52 1008.05 1008.02 1008.07
1014.78 1015.83 1017.27 1019.12 1020.42 1020.56 1019.30 1018.18 1017.29 1017.05 1017.31 1017.74 1018.05 1018.06 1018.11 1018.10 1018.07 1017.78 1017.70 1017.53 1017.50 1017.25 1016.96 1016.68 1016.33 1015.76 1015.33 1014.88 1014.42 1014.05 1013.66 1013.26 1013.15 1012.38 1012.13 1011.94 1011.50 1011.37 1010.92 1010.56 1009.98 1009.09 1008.72 1008.64 1008.66 1008.74 1008.55 1008.39 1008.33
1015.93 1016.77 1018.02 1019.44 1020.62 1021.04 1020.49 1019.14 1016.86 1016.63 1016.77 1017.59 1018.17 1018.45 1018.40 1018.02 1017.87 1017.75 1017.59 1017.59 1017.39 1016.97 1016.79 1016.67 1016.28 1015.79 1015.22 1014.78 1014.33 1013.96 1013.49 1013.00 1012.63 1012.25 1012.12 1012.00 1011.68 1011.56 1011.11 1010.67 1010.25 1009.60 1009.16 1009.20 1009.03 1009.16 1009.05 1008.75 1008.78
1016.52 1017.62 1018.61 1020.38 1021.04 1021.12 1020.69 1018.69 1016.95 1017.04 1017.31 1017.85 1018.25 1018.26 1018.21 1018.03 1018.02 1017.98 1017.81 1017.79 1017.53 1017.19 1016.70 1016.32 1015.96 1015.60 1015.21 1014.78 1014.35 1013.89 1013.29 1012.74 1012.35 1012.01 1012.17 1012.11 1011.66 1011.45 1011.28 1010.93 1010.47 1010.03 1009.61 1009.35 1009.59 1009.68 1009.29 1009.04 1008.73
Wind_Speed
8 7 3 4 6 6 4 5 2 14 7 4 13 6 6 5 5 5 6 10 5 2 6 8 9 8 8 9 8 9 9 10 8 10 11 10 10 9 9 8 6 6 8 9 9 8 7 6 5
5 5 4 3 7 5 6 5 8 7 8 15 13 12 4 1 2 6 3 10 7 4 7 8 12 11 11 10 9 8 8 8 9 8 9 9 8 8 8 7 7 8 8 7 7 7 7 7 6
5 1 4 5 3 1 2 4 3 5 7 12 7 3 4 1 5 4 23 30 16 10 5 4 11 15 13 12 11 11 10 9 9 10 9 10 9 8 8 8 6 6 9 9 7 6 5 5 5
3 5 5 6 3 5 3 4 3 7 8 8 12 8 4 2 5 11 30 31 18 16 7 8 14 11 13 15 13 12 11 10 9 9 9 9 11 10 9 9 8 9 7 5 9 8 6 5 5
4 3 5 3 3 6 3 3 6 10 6 8 7 3 4 3 10 20 26 24 20 20 6 6 12 15 15 14 14 12 12 12 12 11 10 9 9 8 9 11 11 10 10 9 8 8 8 7 7
5 4 4 2 3 6 3 2 6 8 9 6 10 6 2 6 12 11 16 19 20 12 8 4 8 9 6 6 9 10 9 11 12 13 14 13 11 10 10 9 10 11 11 9 9 9 9 8 8
5 5 3 1 6 7 2 1 6 7 6 5 10 6 4 8 8 10 13 11 2 7 7 4 2 4 2 2 6 7 8 8 8 8 9 10 10 11 11 11 11 10 10 10 10 10 11 11 11
5 5 4 3 6 3 5 3 4 7 4 7 7 3 2 5 10 15 7 5 5 6 7 7 7 6 4 4 3 3 7 9 9 8 9 10 12 12 12 12 12 13 13 13 13 12 11 11 12
4 4 1 3 2 6 5 5 6 5 7 11 6 6 4 1 11 18 14 15 10 11 7 5 2 2 4 4 3 5 9 8 8 10 12 7 4 6 9 11 14 15 15 15 16 15 14 14 14
6 4 4 2 1 3 5 5 2 6 5 5 6 5 8 11 11 16 13 10 14 9 11 8 9 8 7 4 1 5 5 3 4 4 5 4 5 6 9 12 15 17 18 18 17 17 16 13 6
3 6 4 1 3 4 4 7 6 6 4 3 7 5 6 12 9 14 15 13 11 7 6 6 6 7 8 7 3 2 2 2 3 5 5 5 7 6 5 5 6 8 15 8 11 9 8 8 5
4 6 5 3 2 3 2 2 4 2 5 9 9 7 7 13 9 12 13 13 10 8 6 5 4 6 6 4 5 6 5 5 4 5 7 6 6 7 6 5 7 7 5 9 7 5 7 7 7
4 2 5 5 2 3 3 2 3 5 7 8 8 8 11 11 11 10 12 9 10 12 9 9 8 6 4 2 2 4 4 5 8 6 7 7 7 6 5 7 6 7 6 7 6 7 6 6 8
2 3 4 3 4 4 2 2 1 7 7 5 6 6 10 14 15 10 13 9 10 8 8 7 8 9 7 8 9 6 4 5 5 7 6 9 8 7 5 7 8 6 7 6 6 6 6 7 5
3 3 5 3 5 4 4 8 4 9 8 9 8 5 10 8 9 12 11 11 10 6 7 8 7 7 7 7 6 6 8 8 5 5 8 8 8 8 10 9 8 8 5 6 5 5 5 4 3
3 5 4 7 6 2 7 8 5 10 8 8 7 9 9 6 10 9 9 9 8 8 8 8 6 7 7 6 5 5 6 8 9 9 6 7 8 12 12 11 10 9 5 5 5 4 4 3 3
7 2 3 8 2 3 5 5 8 7 4 8 9 11 10 7 6 6 8 8 7 8 8 9 7 6 6 5 4 4 6 5 7 9 10 12 8 12 11 11 11 10 7 5 4 4 2 2 3
4 2 4 4 7 6 6 6 9 9 6 8 5 12 7 7 6 6 7 6 7 8 9 8 6 7 6 4 5 4 4 6 7 8 9 15 12 12 8 9 10 6 4 4 1 2 3 3 4
3 4 4 3 3 2 3 6 10 11 10 10 7 12 8 8 4 6 5 7 7 9 9 9 8 7 5 4 7 6 8 7 8 9 14 14 15 13 12 8 8 3 3 7 6 3 5 3 1
7 6 6 5 6 5 9 9 11 18 9 14 9 10 9 9 10 16 16 18 17 10 8 9 8 7 7 3 3 2 4 4 5 8 11 11 10 12 8 5 2 4 4 4 4 5 1 4 3
4 7 2 2 7 6 4 8 16 14 23 21 19 19 16 15 14 11 13 9 7 9 7 6 3 4 3 5 3 3 4 4 6 10 10 11 12 10 8 5 3 5 4 4 3 4 5 4 4
4 2 2 5 6 2 5 4 7 9 15 17 14 13 9 9 11 9 8 8 6 7 6 6 6 6 5 7 6 5 3 4 4 7 8 9 10 9 8 6 4 5 4 5 3 4 5 3 7
1 4 3 3 2 4 7 6 6 5 8 7 7 7 6 6 8 9 8 8 7 7 5 5 5 5 6 6 5 5 3 3 3 7 11 10 8 8 6 7 9 5 1 3 4 4 3 2 5
1 7 8 6 4 4 2 4 5 2 4 2 1 5 6 6 7 6 5 4 6 6 6 6 7 6 7 5 3 2 5 5 6 8 8 8 7 6 12 7 4 4 4 6 5 3 4 2 7
9 8 5 6 6 5 6 3 7 6 4 7 7 5 5 6 8 9 11 11 10 10 9 7 7 7 7 7 3 2 4 6 5 5 6 9 8 7 8 8 8 6 7 9 8 6 6 5 4
2 7 6 3 3 6 6 4 5 5 7 7 8 7 5 4 2 5 2 4 6 7 8 7 8 9 9 10 8 5 5 4 5 4 3 4 5 5 8 6 5 6 6 7 5 3 5 3 3
3 1 5 4 1 2 3 2 5 6 6 7 6 5 5 4 7 4 5 5 7 6 8 7 9 8 9 9 7 6 5 5 6 6 4 3 4 5 6 6 5 5 5 6 4 4 4 3 4
3 3 4 4 1 3 6 2 6 2 6 6 7 6 4 4 1 1 4 5 5 7 6 7 5 4 5 5 5 6 6 5 5 5 5 5 4 5 5 7 6 5 6 7 5 4 5 4 3
7 5 4 4 5 4 2 7 6 3 6 7 5 4 5 2 0 4 5 6 6 5 6 4 5 7 7 7 6 6 7 7 5 3 2 3 3 5 5 5 5 5 5 6 5 4 5 4 4
6 2 5 6 6 3 4 8 6 2 7 7 4 2 0 2 6 7 5 6 6 5 5 4 5 6 7 7 9 8 7 7 7 4 2 2 2 2 4 4 4 5 5 5 5 4 4 4 5
Wind_Direction
303 293 148 56 52 55 338 324 32 95 90 154 147 151 178 121 170 208 315 91 200 308 149 163 149 122 123 124 130 131 133 133 127 125 125 125 126 125 124 120 116 128 142 148 149 152 156 158 149
317 337 40 80 76 44 302 287 21 123 137 117 106 107 93 329 299 309 65 143 150 180 169 166 151 138 142 139 142 138 135 136 135 134 132 131 132 136 142 142 146 155 156 162 164 165 171 172 171
306 66 74 83 100 196 271 305 16 80 154 111 106 102 124 269 1 2 45 28 355 323 196 180 156 154 149 149 154 150 148 147 148 148 151 151 154 160 160 164 171 186 180 171 181 184 185 182 193
355 4 29 84 247 269 226 287 338 88 38 104 122 75 60 240 148 102 79 54 327 279 230 200 168 167 162 162 160 158 151 151 156 162 168 172 169 173 172 178 186 199 205 196 185 185 201 205 209
38 47 38 50 310 257 334 31 73 69 85 73 92 125 80 36 83 124 124 151 173 247 195 216 176 177 182 168 158 158 155 159 165 170 177 183 179 189 193 186 191 205 211 206 216 201 198 223 229
14 93 51 29 3 298 300 231 88 83 110 83 51 75 61 286 82 150 147 165 197 199 120 220 218 191 169 171 155 155 161 168 179 183 179 180 191 189 198 207 206 207 214 222 222 224 215 220 240
126 89 198 221 223 267 250 288 97 110 81 92 148 87 302 23 72 153 193 180 329 82 113 167 341 10 22 196 175 162 175 190 194 201 193 193 197 194 196 204 211 222 229 230 226 230 225 215 222
109 87 17 307 320 333 331 34 171 83 102 155 139 103 55 338 16 84 54 154 72 80 59 44 24 11 351 301 316 231 212 205 203 208 212 202 197 201 207 214 212 218 221 224 227 227 231 229 226
104 58 60 289 30 276 316 76 351 64 72 62 45 111 161 59 33 75 55 53 70 75 69 70 88 8 304 287 270 262 258 252 224 219 225 208 232 217 217 219 218 220 222 224 226 226 227 231 234
108 110 248 227 249 339 349 77 37 73 59 45 64 40 51 48 63 84 80 74 70 77 58 40 24 14 350 288 273 238 272 292 282 311 298 257 230 228 219 225 227 225 222 225 229 227 227 229 226
153 161 210 261 68 48 347 16 354 122 55 142 123 99 68 71 75 83 94 90 91 91 61 28 25 3 8 354 345 282 271 258 264 271 262 236 239 235 227 232 232 225 228 221 224 234 232 227 222
126 133 168 222 86 78 52 297 339 48 168 171 152 160 117 102 97 98 91 110 110 96 97 119 93 41 9 347 349 336 336 307 282 242 237 219 237 230 227 233 235 228 211 219 214 205 220 218 223
85 177 128 171 186 155 158 283 249 287 197 168 153 137 115 117 108 98 103 89 83 71 58 50 70 75 77 76 286 298 295 299 300 291 257 228 240 243 230 236 238 229 209 201 200 213 210 221 225
124 104 173 202 214 251 206 241 299 264 173 184 158 163 124 129 129 119 100 98 84 84 80 74 39 10 13 12 358 349 304 287 282 291 280 253 242 239 232 240 237 227 203 204 202 201 211 214 207
86 29 343 236 216 222 137 328 238 279 181 189 204 134 114 115 120 115 127 124 123 104 97 77 65 22 13 350 347 344 333 328 303 267 278 272 254 245 242 237 241 233 207 210 225 210 195 209 196
1 49 340 280 193 243 94 271 306 342 145 209 250 102 130 134 125 129 124 123 122 124 103 81 54 25 2 349 335 325 324 327 323 317 304 271 264 257 250 240 237 234 196 208 193 199 213 236 237
10 261 275 360 58 75 74 277 307 311 173 235 252 136 148 129 112 123 138 135 128 118 108 81 55 17 347 329 328 325 318 316 314 314 315 308 265 273 243 237 232 219 208 199 198 224 117 239 260
268 318 316 53 341 57 20 286 278 281 319 297 93 141 142 123 136 145 128 121 121 107 84 83 53 17 353 331 327 333 341 337 332 334 314 313 310 291 252 237 227 224 211 218 56 126 217 198 224
265 31 10 125 313 139 344 293 301 312 331 307 151 139 129 114 89 74 80 55 56 65 65 49 38 2 13 6 3 357 349 346 346 347 337 335 332 310 273 240 243 244 76 98 79 35 315 283 331
70 74 352 309 330 54 359 327 347 345 9 22 57 60 65 55 48 46 51 54 54 55 53 42 24 7 14 358 326 352 307 315 346 347 347 337 347 359 345 282 153 125 114 114 117 137 13 290 208
59 97 43 284 334 18 25 8 21 12 53 51 43 76 67 74 79 56 60 58 70 77 93 108 90 51 10 349 340 337 320 304 360 357 343 342 342 344 350 11 53 92 105 142 201 52 350 292 263
38 218 85 358 41 281 55 271 13 356 45 49 46 52 44 52 57 51 36 38 49 38 35 41 48 13 357 8 5 21 324 344 341 333 328 339 351 354 350 351 26 42 57 85 95 137 159 188 288
203 22 5 253 276 64 337 77 283 342 26 17 35 55 55 46 55 44 32 16 4 18 359 24 11 356 353 18 19 333 352 318 333 359 335 343 340 350 344 16 358 19 206 219 192 228 33 82 282
143 23 25 26 90 60 234 141 268 219 203 169 21 55 57 48 52 61 68 25 348 345 351 0 359 321 325 353 3 30 349 3 355 358 349 327 342 359 8 15 0 358 336 8 335 21 9 319 255
65 52 356 5 10 228 269 33 224 204 192 162 140 101 81 54 40 31 18 357 339 340 344 329 329 327 330 312 335 357 4 5 341 352 352 344 350 352 359 21 24 4 29 38 2 10 48 346 344
103 130 150 247 224 250 308 235 249 157 154 158 145 144 109 103 125 140 220 287 326 314 310 322 338 331 333 320 334 347 9 0 311 332 2 342 351 335 332 347 30 11 3 52 3 336 43 299 305
313 353 187 146 315 80 237 104 325 151 158 138 140 131 108 81 47 23 0 336 298 313 313 332 325 328 343 351 355 351 348 336 311 330 360 348 341 332 331 337 358 25 9 9 18 339 16 11 1
93 245 2 7 264 275 300 238 239 227 204 138 155 148 140 119 156 346 301 304 307 308 303 320 330 352 306 331 357 347 324 311 306 334 359 353 356 334 332 327 343 13 20 1 6 354 356 8 353
356 340 53 115 139 177 253 264 224 293 202 149 149 170 193 139 341 293 308 318 301 332 12 12 358 348 343 335 324 318 313 316 321 320 354 354 351 338 332 344 350 2 18 5 12 359 355 5 345
180 65 108 104 293 238 162 269 310 113 99 111 123 178 20 318 314 340 344 349 352 345 335 335 339 345 335 320 323 312 306 312 319 302 36 344 20 356 343 351 14 24 23 27 4 346 350 14 5